Location: Vesunti
(61.5000°N, 22.8333°E)
Time: 07:52:11
(UTC+00:00)

Cosmos 2016 Rocket - Pass Details

Date: 17 February 2020
Orbit: 948 x 999 km, 83.0° (Epoch: 30 March)

Event Time Altitude Azimuth Distance (km) Brightness Sun altitude
Rises 04:07:39 0° 345° (NNW) 3,656 6.9 -14.9°
Reaches altitude 10° 04:10:09 10° 345° (NNW) 2,713 6.2 -14.6°
Maximum altitude 04:16:22 79° 260° (W) 997 3.9 -13.8°
Drops below altitude 10° 04:22:37 10° 175° (S) 2,732 6.4 -13.1°
Sets 04:25:08 0° 174° (S) 3,684 7.1 -12.8°
